Regional Weather Roundup
Issued by NWS

Home | Current Version | Previous Version | Text Only | Print | Product List | Glossary Off
Versions: 1 2 3 4 5 6 7 8 9 10 11 12 13 14 15 16 17 18 19 20 21 22 23 24 25 26 27 28 29 30 31 32 33 34 35 36 37 38 39 40 41 42 43 44 45 46 47 48 49 50

000
ASUS43 KMPX 091810
RWRMN
WEATHER ROUNDUP FOR MINNESOTA
NATIONAL WEATHER SERVICE TWIN CITIES/CHANHASSEN MN
100 PM CDT WED JUL 09 2014


NOTE: "FAIR" INDICATES FEW OR NO CLOUDS BELOW 12,000 FEET WITH NO
SIGNIFICANT WEATHER AND/OR OBSTRUCTIONS TO VISIBILITY. N/A MEANS
CURRENT SKY AND/OR WEATHER CONDITIONS ARE NOT AVAILABLE.

MNZ060>063-068>070-091900-
   Twin Cities Metro

CITY           SKY/WX    TMP DP  RH WIND       PRES   REMARKS
TWIN CITIES    PTSUNNY   75  54  47 W5        30.00F
6HR MIN TEMP:  60; 6HR MAX TEMP:  75;

ST PAUL        PTSUNNY   72  52  49 CALM      30.00F
CRYSTAL        PTSUNNY   73  53  49 MISG      29.99F
BLAINE         MOSUNNY   73  54  49 S5        30.01S
LAKEVILLE      MOSUNNY   72  54  53 W6        30.01F
EDEN PRAIRIE   PTSUNNY   73  55  53 W6        30.00F
6HR MIN TEMP:  60; 6HR MAX TEMP:  74;

SOUTH ST PAUL  MOSUNNY   74  52  46 W5        30.00S
LAKE ELMO      FAIR      72  55  56 NW7       30.02S
$$
MNZ001>005-007-008-013>017-022>024-027-028-091900-
   Northwest Minnesota

CITY           SKY/WX    TMP DP  RH WIND       PRES   REMARKS
BEMIDJI        PTSUNNY   66  52  59 NW8       30.02S
HALLOCK        SUNNY     68  50  52 NW7       30.03S
ROSEAU         FAIR      68  55  64 CALM      30.02S
WARROAD        MOSUNNY   66  55  68 SE5       30.02S
THIEF RVR FALL MOSUNNY   66  52  59 NW7       30.03F
CROOKSTON      MOSUNNY   68  52  56 NW6       30.04F
FOSSTON        PTSUNNY   68  52  56 W6        30.04F
DETROIT LAKES  MOSUNNY   70  52  52 NW9       30.05S
MOORHEAD       SUNNY     72  52  49 N8        30.04S
PARK RAPIDS    MOSUNNY   70  50  49 NW8       30.01F
$$
MNZ006-009>011-018-025>026-091900-
   North Central Minnesota

CITY           SKY/WX    TMP DP  RH WIND       PRES   REMARKS
BAUDETTE       SUNNY     68  50  52 NW7       30.02S
FLAG ISLAND    SUNNY     64  52  63 CALM      30.00S
INTL FALLS     PTSUNNY   69  50  50 NW6       30.00S
6HR MIN TEMP:  51; 6HR MAX TEMP:  69;

WASKISH        MOSUNNY   68  57  68 SW8       30.02R
LONGVILLE      SUNNY     70  54  56 N5        30.02S
GRAND RAPIDS   MOSUNNY   68  48  49 NW6       30.01S
CRANE LAKE     SUNNY     64  45  48 N6        30.02S
ORR            SUNNY     66  46  48 NW3       29.99R
COOK           MOSUNNY   64  46  52 NW6       30.01S
$$
MNZ012-019>021-037-091900-
   Northeast Minnesota

CITY           SKY/WX    TMP DP  RH WIND       PRES   REMARKS
DULUTH         MOSUNNY   70  48  45 N6        29.99S
6HR MIN TEMP:  54; 6HR MAX TEMP:  70;

ELY            MOSUNNY   64  45  48 N6G16     30.00R
HIBBING        PTSUNNY   70  50  49 N10       30.01R
EVELETH        MOSUNNY   66  45  45 NW12G18   30.01S
DULUTH HARBOR  MOSUNNY   68  55  64 E6        29.99F
TWO HARBORS    MOSUNNY   66  48  52 W6        29.97S
SILVER BAY     SUNNY     66  52  59 NW7       29.97R
GRAND MARAIS     N/A     54  45  71 W6        29.96S
G MARAIS ARPRT MOSUNNY   63  41  45 NW8       29.98S
$$
MNZ029>031-032-039>041-046>048-054>057-064-091900-
   West Central Minnesota

CITY           SKY/WX    TMP DP  RH WIND       PRES   REMARKS
FERGUS FALLS   MOSUNNY   72  52  49 N10       30.03S
WHEATON        SUNNY     72  54  53 NW10      30.05S
MORRIS         SUNNY     73  54  49 NW12      30.02F
ALEXANDRIA     MOSUNNY   71  50  47 NW8       30.04S
WADENA         SUNNY     70  54  56 W3        30.02S
GLENWOOD       MOSUNNY   72  55  56 NW10      30.03S
APPLETON       SUNNY     77  52  41 N9G16     30.02S
BENSON         MOSUNNY   75  54  46 N10G17    30.03R
ORTONVILLE     SUNNY     73  52  46 N5        30.04S
MADISON        SUNNY     79  55  44 N9        30.03F
WILLMAR        FAIR      75  48  38 NW16      30.03S
$$
MNZ033>034-036-042>043-049>051-058-059-091900-
   Central Minnesota

CITY           SKY/WX    TMP DP  RH WIND       PRES   REMARKS
ST CLOUD       MOSUNNY   76  54  46 N5        30.00F
6HR MIN TEMP:  58; 6HR MAX TEMP:  77;

SAUK CENTRE    MOCLDY    71  55  55 NW7       30.02S
PAYNESVILLE    MOSUNNY   69  53  54 W6        30.02S
AITKIN         MOSUNNY   73  54  49 NW6       29.99F
PINE RIVER     PTSUNNY   70  52  52 NW6       30.04F
BRAINERD       MOSUNNY   77  52  41 N5        30.01F
STAPLES        MOSUNNY   72  50  46 NW6       30.02S
LONG PRAIRIE   PTSUNNY   68  52  56 W3        30.02F
LITTLE FALLS   MOSUNNY   72  50  46 NW7       30.01F
LITCHFIELD     MOSUNNY   75  52  43 NW5       30.01S
BUFFALO        SUNNY     73  54  51 W6        30.02S
MAPLE LAKE     MOSUNNY   74  57  56 CALM      30.02S
$$
MNZ037-044-045-052-053-091900-
   East Central Minnesota

CITY           SKY/WX    TMP DP  RH WIND       PRES   REMARKS
PRINCETON      MOSUNNY   73  55  53 CALM      30.01S
MORA           SUNNY     70  48  46 NW12      30.01F
CAMBRIDGE      MOSUNNY   73  55  53 W5        29.98F
RUSH CITY      MOSUNNY   72  55  55 CALM      30.00F
MOOSE LAKE     MOSUNNY   70  52  52 NE6       29.98F
HINCKLEY       MOCLDY    72  54  53 NW6       29.99F
CLOQUET        MOSUNNY   70  48  46 NW10G16   30.00S
MCGREGOR       PTSUNNY   70  52  52 N7        30.00F
$$
MNZ071>073-080-081-089-090-097-098-091900-
   Southwest Minnesota

CITY           SKY/WX    TMP DP  RH WIND       PRES   REMARKS
MONTEVIDEO     SUNNY     77  54  44 N9        30.03F
GRANITE FALLS  SUNNY     76  53  44 NW7       30.04S
CANBY          SUNNY     76  54  45 N6        30.05S
MARSHALL       MOSUNNY   75  52  43 MISG      30.03F
REDWOOD FALLS  SUNNY     78  53  41 NW12      30.01S
OLIVIA         SUNNY     77  52  41 NW9       30.01S
PIPESTONE      MOSUNNY   75  55  50 NW6       30.06S
WINDOM         MOSUNNY   75  55  50 NW14      30.04S
WORTHINGTON    MOSUNNY   75  57  53 NW9G17    30.06S
JACKSON        MOSUNNY   77  54  44 W13       30.05S
TRACY          MOSUNNY   77  55  46 NW8       30.04S
SLAYTON        MOSUNNY   75  53  46 CALM      30.06S
$$
MNZ065>067-074>077-082>085-091>093-091900-
   South Central Minnesota

CITY           SKY/WX    TMP DP  RH WIND       PRES   REMARKS
MANKATO        MOSUNNY   75  54  46 W8        30.01F
NEW ULM        SUNNY     75  55  50 NW12G17   30.01S
ST JAMES       MOSUNNY   79  54  41 NW12      30.03S
FAIRMONT       PTSUNNY   77  54  44 NW9       30.03S
GLENCOE        SUNNY     76  50  39 NW8       29.99F
FARIBAULT      SUNNY     79  50  36 W5        30.02F
OWATONNA       MOSUNNY   73  54  49 W6        30.02F
WASECA         MOSUNNY   72  46  40 W3        30.04F
ALBERT LEA     SUNNY     75  52  43 NW8       30.02F
$$
MNZ078>079-086>088-094>096-091900-
   Southeast Minnesota

CITY           SKY/WX    TMP DP  RH WIND       PRES   REMARKS
ROCHESTER      PTSUNNY   72  56  57 W8        30.04S
6HR MIN TEMP:  57; 6HR MAX TEMP:  72;

RED WING       SUNNY     75  52  43 W6        30.00F
STANTON        MOSUNNY   75  53  47 NW6       30.00S
DODGE CENTER   MOSUNNY   72  54  53 CALM      30.03S
WINONA         SUNNY     73  52  46 N6        30.01F
AUSTIN         MOSUNNY   73  52  46 W7        30.03S
PRESTON        MOSUNNY   72  56  58 NW6       30.04S
$$
ABBREVIATIONS USED IN REMARKS
   TC - TEMPERATURES IN CELSIUS
  WCI - WIND CHILL INDEX
   HX - HEAT INDEX
  VSB - VISIBILITY
$$



USA.gov is the U.S. government's official web portal to all federal, state and local government web resources and services.